Location: Altamira
(10.5079°N, 66.8544°W)
Time: 09:10:04
(UTC+00:00)

Cosmos 1470 Rocket - Pass Details

Date: 08 December 2021
Orbit: 603 x 633 km, 82.5° (Epoch: 24 January)

Event Time Altitude Azimuth Distance (km) Brightness Sun altitude
Rises 22:29:57 0° 7° (N) 2,916 6.7 -6.4°
Reaches altitude 10° 22:32:17 10° 14° (NNE) 2,009 5.8 -6.9°
Maximum altitude 22:36:30 41° 85° (E) 915 4.0 -7.9°
Drops below altitude 10° 22:40:42 10° 156° (SSE) 2,006 6.2 -8.9°
Sets 22:43:01 0° 163° (SSE) 2,911 7.1 -9.4°
